Weather Roundup
Issued by NWS Springfield, MO

Current Version | Previous Version | Text Only | Print | Product List | Glossary On
Versions: 1 2 3 4 5 6 7 8 9 10 11 12 13 14 15 16 17 18 19 20 21 22 23 24 25 26 27 28 29 30 31 32 33 34 35 36 37 38 39 40 41 42 43 44 45 46 47 48 49 50
000
NZUS99 KSGF 272207
HRRSGF

HOURLY WEATHER
NATIONAL WEATHER SERVICE SPRINGFIELD MO
400 PM CST TUE JAN 27 2015

......SGF CWA......

CITY           SKY/WX    TMP DP  RH WIND       PRES   REMARKS
SPRINGFIELD    SUNNY     58  25  28 CALM      30.11R
JOPLIN         SUNNY     64  27  24 NE3       30.10F
WEST PLAINS    SUNNY     57  27  31 CALM      30.11S
ROLLA          SUNNY     50  31  48 CALM      30.12R
OSAGE BEACH    SUNNY     54  30  40 CALM      30.13S
BRANSON        SUNNY     63  28  27 CALM      30.12S

......SURROUNDING SGF CWA......

CITY           SKY/WX    TMP DP  RH WIND       PRES   REMARKS
CHANUTE        SUNNY     63  34  33 S10       30.09S
PARSONS        SUNNY     65  35  33 S8        30.09F
COFFEYVILLE    SUNNY     66  35  31 SE6       30.09S
EMPORIA        SUNNY     62  34  35 SE14      30.03F
GROVE OK       SUNNY     68  32  26 CALM      30.11S
ROGERS AR      SUNNY     65  25  22 SW5       30.11F
SILOAM SPRINGS SUNNY     66  28  24 CALM      30.11F
HARRISON AR    SUNNY     63  25  23 NW5       30.11S
NEAR YELLVILLE SUNNY     61  30  31 NE3       30.11S

......KANSAS AND MISSOURI......

CITY           SKY/WX    TMP DP  RH WIND       PRES   REMARKS
KANSAS CTY INT SUNNY     55  30  38 SE8       30.08F
DOWNTOWN KC    SUNNY     58  30  34 SE8       30.08F
COLUMBIA       SUNNY     51  33  50 CALM      30.14R
SEDALIA        SUNNY     53  32  44 E5        30.14R
ST JOSEPH      SUNNY     55  31  39 SE10      30.08F
ST LOUIS       NOT AVBL
SPIRIT OF STL  MOSUNNY   46  31  55 NE7       30.17R
KIRKSVILLE     SUNNY     45  32  60 E3        30.15S
WICHITA        MOSUNNY   72  36  26 S14       30.01F
TOPEKA         SUNNY     60  32  34 SE13      30.05F
OLATHE         SUNNY     57  33  40 S9        30.07F

......TENNESSEE......

CITY           SKY/WX    TMP DP  RH WIND       PRES   REMARKS
MEMPHIS        SUNNY     55  35  47 NW9       30.13R
NASHVILLE      CLOUDY    39  29  67 NW10      30.13R WCI  32

......ARKANSAS.......

CITY           SKY/WX    TMP DP  RH WIND       PRES   REMARKS
FAYETTEVILLE   SUNNY     66  22  18 W3        30.11F
FT SMITH       SUNNY     71  19  14 W5        30.10F
LITTLE ROCK    SUNNY     66  29  24 S3        30.12S

......OKLAHOMA.......

CITY           SKY/WX    TMP DP  RH WIND       PRES   REMARKS
TULSA          MOSUNNY   72  36  26 S9        30.06F
PONCA CITY     SUNNY     76  34  21 S7        30.03F
MCALESTER      PTSUNNY   75  36  24 SW5       30.09F
OKLAHOMA CITY  MOSUNNY   78  34  20 SW10      30.08F

......IOWA............

CITY           SKY/WX    TMP DP  RH WIND       PRES   REMARKS
DES MOINES     MOSUNNY   46  30  53 SE8       30.13S
QUAD CITIES    CLOUDY    29  22  75 NE7       30.23R WCI  22

......ILLINOIS........

CITY           SKY/WX    TMP DP  RH WIND       PRES   REMARKS
QUINCY         CLOUDY    36  29  75 NE10      30.19R WCI  28
CHICAGO        PTCLDY    30  16  56 NE9       30.20R WCI  22




USA.gov is the U.S. government's official web portal to all federal, state and local government web resources and services.